[[{"header":{"parameterUnit":"m.s-1","parameterCategory":1,"la1":30.2991,"la2":30.254,"lo1":-89.0895,"lo2":-89.0444,"dy":0.0017,"dx":0.0017,"nx":28,"ny":28,"refTime":"2025-08-14T09:00:00:Z","depth":0,"parameterNumber":2,"parameterNumberName":"U-component_of_WINDS"},"data":[0,0,0,0,0,0,0,0,0,0,0,0,0,0,0,0,0,0,0,0,0,0,0,0,0,0,0,0,0,0,0,0,0,0,0,0,0,0,0,0,0,0,0,0,0,0,0,0,0,0,0,0,0,0,0,0,0,0,1.9949,1.9951,0,2.0097,2.0099,2.0101,2.0137,2.0136,2.0135,2.0134,2.0287,2.0292,2.0297,0,0,0,0,0,0,0,0,0,0,0,0,0,1.9698,1.9703,1.9949,1.9951,1.9953,2.0097,2.0099,2.0101,2.0137,2.0136,2.0135,2.0134,2.0286,2.0291,2.0297,0,0,0,0,0,0,0,0,0,0,0,0,0,1.9823,1.9704,1.9949,1.9988,1.9993,2.0097,2.0099,2.0102,2.0138,2.0136,2.0135,2.0133,2.0284,2.0291,2.0298,2.0373,0,0,2.0321,2.0324,0,0,0,0,0,0,0,0,1.9816,1.9832,1.998,1.9986,1.9991,2.0097,2.0067,2.0193,2.0138,2.0083,2.0134,2.0133,2.0225,2.0237,2.0268,2.038,2.0387,2.0322,2.0326,2.0329,2.0331,0,0,0,0,0,0,0,1.9807,1.9826,2.0008,1.9983,1.9989,1.9999,2.0015,2.0091,2.016,2.0087,2.009,2.0107,2.0228,2.0261,2.0272,2.0389,2.0321,2.0328,2.0333,2.0336,2.0571,2.0572,0,0,0,0,0,0,1.9792,1.9819,2.0003,2.0012,1.9898,2.0005,2.0023,2.0065,2.016,2.0173,2.0109,2.0109,2.0249,2.0264,2.0278,2.0372,2.0329,2.0336,2.0341,2.0569,2.0571,2.0573,0,0,0,0,0,0,1.9786,1.9808,1.9997,1.9916,1.9941,2.001,2.0057,2.0068,2.0102,2.0176,2.0188,2.013,2.0249,2.0267,2.0349,2.0377,2.034,2.0346,2.0567,2.057,2.0572,2.056,0,0,0,0,0,0,1.9779,1.9805,1.9834,1.9917,1.9945,2.0065,2.0059,2.0072,2.0114,2.0116,2.0199,2.0211,2.0249,2.0338,2.0357,2.0387,2.0352,2.0565,2.0568,2.0571,2.0558,2.0562,2.0565,0,0,0,0,0,1.977,1.9825,1.9835,1.9857,1.9983,2.0067,2.0083,2.0125,2.0116,2.0146,2.0194,2.0208,2.0372,2.0346,2.0367,2.04,2.0563,2.0567,2.0571,2.0557,2.0561,2.0565,0,0,0,0,0,0,1.9744,1.9836,1.9849,1.9933,1.9992,2.0073,2.0111,2.0129,2.0192,2.0191,2.0241,2.0259,2.0338,2.0378,2.0347,2.0478,2.0467,2.0476,2.0449,2.0454,2.0457,2.0446,2.0358,0,0,0,0,0,1.9748,1.9809,1.9886,1.9953,1.9982,2.0041,2.008,2.0107,2.017,2.0196,2.0249,2.031,2.0375,2.0417,2.0481,2.0565,2.0583,2.0598,2.0602,2.0604,2.061,2.0657,2.0665,2.0586,2.0586,2.0586,0,0,1.9757,1.9815,1.985,1.9949,1.9998,2.006,2.0062,2.0127,2.0174,2.0206,2.0286,2.0328,2.0399,2.0482,2.0521,2.0518,2.0637,2.0609,2.0611,2.0616,2.0662,2.067,2.0676,2.0589,2.0588,2.0588,0,0,1.9805,1.9855,1.9916,1.9965,2.0039,2.0079,2.0093,2.0172,2.0201,2.0283,2.0308,2.0364,2.0475,2.0525,2.0565,2.0633,2.0649,2.0653,2.067,2.0716,2.0722,2.0728,2.0751,2.0759,2.0659,2.0659,2.0659,0,1.9807,1.9901,1.9945,2.0009,2.0052,2.0084,2.0146,2.0192,2.0283,2.0312,2.0307,2.0447,2.0497,2.0592,2.0609,2.064,2.0659,2.0643,2.0717,2.0724,2.073,2.0753,2.0762,2.0659,2.0659,2.0659,2.0659,0,1.9899,1.9964,2.0004,2.0091,2.0139,2.0201,2.0256,2.0299,2.0322,2.0363,2.0445,2.0507,2.0584,2.0609,2.0633,2.0708,2.0704,2.0707,2.0697,2.0736,2.0759,2.0768,2.0659,2.0659,2.0659,2.0659,0,0,1.9933,2.0045,2.0059,2.0099,2.0184,2.0235,2.0299,2.0375,2.041,2.0473,2.0528,2.0622,2.0626,2.0671,2.0701,2.0741,2.0791,2.074,2.0743,2.0747,2.0876,2.0872,2.0882,2.0802,2.0804,2.0806,2.087,0,1.9991,2.0107,2.0149,2.0244,2.0305,2.0337,2.0393,2.0451,2.0491,2.0548,2.0593,2.0658,2.0659,2.0687,2.0728,2.0776,2.0817,2.0772,2.0854,2.0856,2.0833,2.0894,2.0889,2.0947,2.0879,2.0881,2.0882,0,2.0073,2.0136,2.0237,2.0315,2.0342,2.0391,2.0464,2.0519,2.0586,2.0612,2.0663,2.069,2.076,2.0746,2.0842,2.0811,2.0847,2.0876,2.0879,2.0887,2.087,2.0902,2.0967,2.0975,2.0896,2.0895,2.0894,0,2.0087,2.0197,2.0272,2.0305,2.0398,2.0432,2.0472,2.0538,2.0581,2.0645,2.0673,2.0744,2.0783,2.0838,2.0884,2.087,2.0976,2.0966,2.1,2.0998,2.1019,2.1017,2.1089,2.1044,2.1044,2.1044,2.1044,0,2.0146,2.0206,2.0279,2.0325,2.0394,2.0443,2.051,2.0552,2.0611,2.0666,2.0698,2.0749,2.0808,2.0867,2.0904,2.0977,2.0995,2.1018,2.1027,2.1015,2.1011,2.1038,2.1035,2.1047,2.1046,2.1046,2.1045,0,2.0172,2.0223,2.0307,2.0388,2.041,2.0457,2.0527,2.0573,2.0615,2.0684,2.0703,2.0768,2.0839,2.0891,2.0983,2.1008,2.1087,2.1096,2.1064,2.1068,2.1098,2.1094,2.1188,2.1203,2.1149,2.115,2.115,0,2.0205,2.0252,2.0339,2.0378,2.0418,2.0481,2.0525,2.0575,2.0619,2.07,2.0736,2.0809,2.087,2.0982,2.1038,2.1109,2.112,2.1148,2.113,2.1116,2.1119,2.1115,2.112,2.115,2.115,2.1151,2.1151,0,2.0259,2.0283,2.0344,2.0415,2.0467,2.0525,2.0584,2.0615,2.0676,2.0724,2.0797,2.0844,2.0938,2.101,2.1086,2.1129,2.115,2.1156,2.1167,2.1155,2.1133,2.1144,2.1069,2.1153,2.1153,2.1153,2.1153,2.1153,2.029,2.0333,2.0401,2.0469,2.0518,2.0573,2.062,2.0668,2.073,2.081,2.0836,2.0911,2.0978,2.1083,2.1126,2.1186,2.1185,2.1201,2.1205,2.1208,2.1207,2.1125,2.12,2.12,2.12,2.12,2.12,0,2.0344,2.039,2.0452,2.0533,2.0587,2.0603,2.0669,2.0713,2.0779,2.0839,2.0899,2.0983,2.1053,2.1115,2.1188,2.1224,2.1236,2.1242,2.1239,2.1248,2.1204,2.1186,2.1231,2.1231,2.1231,2.1231,2.1231,2.1231,2.0379,2.0453,2.0485,2.0584,2.063,2.0703,2.074,2.0791,2.0839,2.0931,2.099,2.103,2.1091,2.117,2.1235,2.1252,2.1277,2.128,2.1298,2.1255,2.1252,2.1248,2.1232,2.1285,2.1285,2.1338,2.1339,2.1339]},{"header":{"parameterUnit":"m.s-1","parameterCategory":1,"la1":30.2991,"la2":30.254,"lo1":-89.0895,"lo2":-89.0444,"dy":0.0017,"dx":0.0017,"nx":28,"ny":28,"refTime":"2025-08-14T09:00:00:Z","depth":0,"parameterNumber":3,"parameterNumberName":"V-component_of_WINDS"},"data":[0,0,0,0,0,0,0,0,0,0,0,0,0,0,0,0,0,0,0,0,0,0,0,0,0,0,0,0,0,0,0,0,0,0,0,0,0,0,0,0,0,0,0,0,0,0,0,0,0,0,0,0,0,0,0,0,0,0,3.1601,3.16,0,3.1574,3.1573,3.1573,3.1537,3.1536,3.1535,3.1535,3.1506,3.1506,3.1506,0,0,0,0,0,0,0,0,0,0,0,0,0,3.162,3.162,3.1601,3.16,3.16,3.1574,3.1573,3.1573,3.1537,3.1536,3.1535,3.1534,3.1506,3.1506,3.1506,0,0,0,0,0,0,0,0,0,0,0,0,0,3.1604,3.162,3.1601,3.1579,3.1576,3.1574,3.1573,3.1573,3.1537,3.1536,3.1535,3.1534,3.1506,3.1506,3.1506,3.1522,0,0,3.1505,3.1505,0,0,0,0,0,0,0,0,3.1605,3.1604,3.1582,3.158,3.1578,3.1558,3.157,3.1556,3.1537,3.1552,3.1535,3.1534,3.1524,3.1522,3.1519,3.1521,3.152,3.1505,3.1505,3.1505,3.1505,0,0,0,0,0,0,0,3.1606,3.1605,3.159,3.1582,3.1579,3.157,3.1567,3.1567,3.1543,3.155,3.1548,3.1545,3.1523,3.152,3.1518,3.1519,3.1505,3.1505,3.1505,3.1504,3.1534,3.1535,0,0,0,0,0,0,3.1611,3.1606,3.1591,3.1589,3.159,3.157,3.1567,3.1565,3.1543,3.1539,3.1546,3.1544,3.152,3.1519,3.1517,3.1535,3.1505,3.1504,3.1504,3.1533,3.1535,3.1536,0,0,0,0,0,0,3.1611,3.161,3.1592,3.1597,3.1594,3.1571,3.1569,3.1565,3.1562,3.154,3.1535,3.1547,3.152,3.1517,3.1522,3.1534,3.1504,3.1504,3.1532,3.1534,3.1535,3.1571,0,0,0,0,0,0,3.1612,3.161,3.1616,3.1597,3.1594,3.1597,3.157,3.1565,3.1561,3.1558,3.154,3.1536,3.1519,3.1522,3.1521,3.1533,3.1504,3.1531,3.1533,3.1535,3.1569,3.1574,3.1578,0,0,0,0,0,3.1613,3.1627,3.1617,3.1615,3.1601,3.1598,3.1596,3.1576,3.1563,3.1568,3.1555,3.1536,3.1533,3.1523,3.1522,3.1533,3.153,3.1532,3.1534,3.1567,3.1573,3.1578,0,0,0,0,0,0,3.1648,3.1624,3.1612,3.1621,3.1612,3.1591,3.1598,3.1583,3.1577,3.1574,3.1549,3.1546,3.1553,3.1543,3.1533,3.1548,3.1529,3.1531,3.1554,3.156,3.1564,3.1566,3.1504,0,0,0,0,0,3.1657,3.1656,3.1636,3.1645,3.1641,3.1621,3.1619,3.1605,3.1594,3.1589,3.1576,3.1566,3.1562,3.1561,3.1556,3.1568,3.1564,3.1575,3.158,3.1584,3.1586,3.1591,3.1596,3.1543,3.1543,3.1543,0,0,3.1674,3.1662,3.1663,3.1652,3.1643,3.1643,3.1618,3.1619,3.1618,3.1589,3.1592,3.1582,3.157,3.1578,3.1581,3.157,3.16,3.1587,3.159,3.1589,3.1594,3.1599,3.1604,3.1544,3.1544,3.1544,0,0,3.1707,3.1697,3.1704,3.1696,3.1683,3.167,3.1672,3.1654,3.1647,3.1649,3.1628,3.1628,3.1622,3.1614,3.1609,3.1641,3.1624,3.164,3.1663,3.1669,3.1674,3.1677,3.1688,3.1693,3.1642,3.1642,3.1642,0,3.1731,3.173,3.171,3.1712,3.1708,3.1683,3.169,3.1683,3.167,3.1667,3.1656,3.165,3.1639,3.1645,3.1653,3.165,3.1652,3.1641,3.1675,3.1678,3.1681,3.1692,3.1696,3.1644,3.1644,3.1644,3.1643,0,3.176,3.176,3.1767,3.1755,3.1752,3.1757,3.1738,3.1737,3.1724,3.1711,3.1715,3.1702,3.1695,3.1696,3.1682,3.17,3.1694,3.1679,3.1659,3.1689,3.1698,3.1702,3.1647,3.1646,3.1646,3.1645,0,0,3.1812,3.179,3.1793,3.1787,3.1772,3.1771,3.1776,3.1769,3.1769,3.1761,3.1764,3.1761,3.1747,3.1742,3.1728,3.1733,3.1759,3.1718,3.1717,3.1725,3.1778,3.1789,3.1794,3.1748,3.1749,3.1749,3.1779,0,3.1841,3.1846,3.1829,3.1839,3.1839,3.1816,3.1819,3.181,3.18,3.1798,3.1786,3.1784,3.1767,3.1763,3.1768,3.1755,3.1769,3.1753,3.175,3.175,3.1753,3.1798,3.1809,3.1838,3.1782,3.1783,3.1783,0,3.1875,3.1869,3.188,3.1864,3.1864,3.1867,3.186,3.1859,3.1849,3.1841,3.1836,3.182,3.1823,3.1804,3.1808,3.1798,3.1796,3.179,3.179,3.1789,3.1768,3.1797,3.1846,3.1851,3.1789,3.1788,3.1788,0,3.1912,3.1907,3.1912,3.1908,3.1891,3.1894,3.1887,3.1876,3.1873,3.1868,3.1866,3.186,3.1857,3.1854,3.1837,3.1825,3.1843,3.1823,3.1836,3.1836,3.184,3.184,3.1889,3.184,3.184,3.184,3.184,0,3.1945,3.1952,3.1928,3.1932,3.1939,3.192,3.1928,3.1918,3.1909,3.191,3.189,3.1892,3.1869,3.1869,3.1855,3.1861,3.186,3.1853,3.1849,3.1855,3.1855,3.1852,3.185,3.1841,3.1841,3.184,3.184,0,3.1987,3.1971,3.1976,3.1959,3.1955,3.1962,3.1948,3.195,3.1939,3.1941,3.194,3.1922,3.192,3.1903,3.1898,3.1889,3.1899,3.1892,3.1903,3.19,3.1914,3.1913,3.1963,3.1968,3.1916,3.1917,3.1917,0,3.2009,3.2014,3.1998,3.1998,3.1992,3.1992,3.1989,3.1971,3.1969,3.1959,3.1963,3.196,3.1956,3.1954,3.194,3.1936,3.1929,3.1946,3.1928,3.1933,3.1928,3.1928,3.1929,3.195,3.1951,3.1951,3.1952,0,3.205,3.2042,3.2039,3.2035,3.2033,3.2028,3.2022,3.2023,3.2002,3.2002,3.2,3.1997,3.1992,3.1989,3.1983,3.1976,3.196,3.1958,3.1961,3.1965,3.1972,3.1968,3.1913,3.1956,3.1956,3.1956,3.1955,3.1955,3.2082,3.2085,3.2075,3.2074,3.2067,3.2063,3.2064,3.2054,3.2052,3.2047,3.2036,3.2036,3.2027,3.2017,3.2011,3.2011,3.2002,3.2006,3.2007,3.2008,3.2011,3.1972,3.201,3.2009,3.2009,3.2009,3.2009,0,3.2121,3.2114,3.2113,3.2105,3.2104,3.2091,3.2084,3.2084,3.2084,3.2077,3.2074,3.2073,3.207,3.2057,3.2053,3.2056,3.2049,3.2055,3.2055,3.2053,3.2019,3.2017,3.2061,3.2061,3.2061,3.2061,3.2061,3.2061,3.2142,3.2147,3.2139,3.2141,3.2134,3.2134,3.2131,3.2127,3.2121,3.2121,3.2119,3.211,3.2101,3.2097,3.2094,3.209,3.209,3.2099,3.2092,3.2061,3.2056,3.2051,3.2049,3.2099,3.2099,3.2127,3.2127,3.2127]}]]